Theta_e
314 315 316 315 315 315 314 314 314 315 314 313 315 316 316 316 315 317 318 319 320 320 320 320 340 349 354 355 354 353 352 351 350 344 343 346 345 346 346 346 345 337 340 338
316 316 315 315 315 315 316 316 316 315 315 315 315 314 314 315 317 317 318 319 320 321 321 322 345 352 355 355 354 353 351 348 341 344 346 345 345 346 345 344 343 342 340 339
316 316 315 315 315 315 316 316 316 316 316 316 315 315 315 315 313 314 316 317 320 321 322 328 345 353 356 356 353 350 346 339 338 347 347 346 347 346 344 344 341 340 341 341
315 315 315 316 316 316 317 316 316 315 314 318 316 318 317 316 315 314 315 316 318 320 321 331 348 355 355 355 353 348 344 340 343 347 346 345 342 343 335 334 336 340 341 342
316 315 315 317 317 316 316 315 316 316 316 315 316 316 316 316 315 315 315 316 318 320 321 328 350 354 354 354 352 350 346 344 344 339 345 344 340 338 335 337 341 342 341 340
315 314 314 316 316 316 315 316 317 316 316 321 317 317 317 316 316 315 317 315 318 320 322 326 348 353 354 354 353 351 347 345 343 343 342 333 334 339 340 341 341 339 339 333
316 316 316 315 317 316 315 319 320 321 321 319 316 316 316 315 315 317 317 317 318 321 322 327 348 352 353 353 353 352 350 348 346 344 335 334 339 341 341 340 339 336 334 333
317 317 316 316 317 316 317 317 320 322 319 316 315 314 315 316 315 315 316 318 318 321 322 328 346 351 352 352 352 349 351 348 346 337 335 336 339 341 341 339 336 335 332 331
318 317 315 314 315 315 317 318 316 317 315 316 315 315 315 316 315 315 320 318 319 322 322 335 346 350 350 351 349 349 347 345 340 338 340 342 343 341 339 337 334 333 334 330
314 318 314 314 314 315 315 315 320 319 317 318 315 314 314 315 315 315 318 322 321 322 325 340 347 349 350 349 350 351 346 344 340 342 343 342 341 341 334 332 331 330 328 328
312 310 314 315 317 317 316 316 317 316 315 318 316 314 316 314 316 315 318 320 322 322 332 343 348 346 347 347 349 347 347 343 343 346 343 341 339 334 331 333 331 328 333 332
311 311 317 316 315 315 315 316 316 319 317 316 316 317 320 314 316 317 320 321 322 323 339 344 341 341 345 345 344 343 344 342 343 342 342 338 334 331 333 333 332 332 331 327
309 314 318 319 317 316 316 316 316 316 317 317 319 317 315 316 323 318 322 322 323 333 337 337 338 340 342 342 342 342 342 342 342 342 339 332 331 331 332 332 331 328 323 318
311 313 316 319 319 316 317 315 315 315 318 317 315 315 314 318 323 322 323 322 329 337 334 333 334 338 340 341 341 341 342 341 340 337 333 331 331 332 332 327 322 317 315 315
310 316 317 317 318 318 318 316 316 316 315 317 316 320 318 319 319 324 323 336 333 331 330 331 332 336 338 339 341 342 341 339 337 332 333 333 331 327 322 319 316 315 314 312
311 316 317 319 319 317 317 315 315 316 317 318 317 320 319 321 321 327 336 331 329 328 328 328 330 333 335 338 339 337 335 335 333 332 332 327 323 319 318 315 314 313 310 309
310 315 318 322 321 319 322 317 317 316 317 311 320 318 321 326 334 334 331 329 327 326 326 327 329 331 332 335 334 333 332 331 332 330 323 320 318 316 314 313 311 309 309 309
310 313 319 323 322 325 318 312 311 310 314 311 319 317 322 328 327 328 328 326 324 324 324 325 326 327 329 329 328 326 326 325 324 321 319 318 316 315 313 311 310 309 309 309
308 311 321 323 324 321 318 311 308 309 310 312 312 321 321 319 319 317 321 321 321 322 323 324 325 325 325 326 325 324 324 323 321 320 317 316 315 314 313 311 309 308 307 307
311 313 318 319 321 323 314 306 304 305 322 309 310 322 323 324 320 317 317 318 318 320 321 322 323 324 323 322 322 321 320 319 318 316 316 315 314 313 312 309 309 308 308 307
311 311 316 317 319 319 306 303 308 319 312 307 313 317 321 318 314 313 315 315 317 319 320 320 321 321 320 319 319 318 317 316 315 315 315 314 313 312 310 309 308 308 308 307
307 308 312 312 317 319 303 304 307 307 304 309 310 310 310 309 309 311 312 314 315 316 317 318 318 317 316 316 315 314 313 313 312 313 313 312 310 309 308 308 307 306 306 305
311 305 306 306 309 303 301 300 302 308 306 307 307 307 308 308 308 310 311 312 313 314 315 315 314 314 313 313 312 312 310 310 310 311 311 311 310 308 307 306 306 305 305 304
307 302 305 306 304 302 300 300 304 306 305 305 305 305 305 305 306 307 310 311 311 312 311 311 311 310 310 309 309 309 309 309 309 309 308 307 306 305 305 304 304 303 303 303
304 302 303 305 303 299 301 300 303 304 304 304 304 303 303 305 303 305 307 308 310 310 309 308 308 307 307 307 307 307 307 307 307 307 306 305 304 304 303 303 301 300 302 301
301 302 304 306 299 298 298 300 303 303 304 305 305 304 303 304 303 304 303 304 305 306 305 304 304 304 305 305 306 306 307 307 306 305 305 304 303 302 301 300 301 299 298 297
Wind_Speed
17 13 16 19 19 19 20 20 21 18 11 13 19 20 17 21 26 23 22 21 20 20 20 22 23 27 29 31 29 28 28 28 29 27 21 16 15 15 13 11 11 11 10 10
11 19 21 20 21 21 22 23 24 21 17 15 22 21 22 20 23 26 26 25 23 19 17 23 26 29 31 32 30 29 29 29 28 19 16 14 14 13 11 11 10 10 9 11
18 20 18 15 16 19 21 23 23 22 18 18 18 22 25 26 29 30 32 28 23 22 19 25 29 33 31 31 32 31 31 31 25 19 19 17 15 14 16 14 15 13 12 11
16 17 15 20 23 21 21 18 19 18 13 17 17 19 22 21 25 25 34 32 31 26 22 25 31 32 33 31 29 27 28 27 23 22 18 17 15 18 18 16 15 16 15 12
16 16 16 17 16 13 18 16 18 16 17 18 24 13 25 19 21 23 26 34 32 29 26 27 32 33 32 30 28 26 26 24 24 24 17 22 22 20 17 15 15 15 13 10
26 25 18 22 15 15 13 11 10 13 12 14 25 21 23 18 21 24 23 37 35 30 27 28 31 31 32 29 28 26 27 26 24 23 25 20 20 18 14 13 12 12 14 17
15 20 21 19 18 14 7 6 6 8 8 18 12 16 21 18 16 21 25 32 38 33 29 31 36 35 33 32 30 28 29 29 28 28 23 19 16 12 8 12 14 20 20 17
8 5 7 13 18 10 17 18 10 7 15 17 22 11 22 28 25 23 27 31 35 33 28 33 37 35 34 34 32 35 33 32 28 25 21 18 16 13 17 17 17 16 24 23
5 7 4 9 15 10 3 10 16 3 11 9 16 15 20 17 16 25 14 25 33 30 28 36 38 35 35 35 36 35 34 29 27 25 22 20 18 20 20 20 22 26 24 23
2 9 14 13 5 7 9 6 4 6 7 15 15 19 17 19 18 24 23 17 27 30 31 37 39 36 34 37 36 35 31 31 29 26 24 25 22 22 20 20 21 24 23 17
3 7 7 5 9 12 5 3 9 10 10 6 13 14 20 19 20 26 24 31 29 33 35 37 36 36 35 40 38 36 30 31 30 30 29 24 26 24 23 25 28 26 18 14
7 4 6 18 12 15 12 13 15 7 13 12 14 14 21 13 17 25 22 31 35 34 38 39 42 41 43 43 38 36 34 34 35 31 27 28 27 26 25 28 29 24 19 14
2 4 5 5 8 10 7 12 15 17 11 13 6 7 20 28 22 26 24 34 35 36 35 42 44 44 42 40 39 36 35 34 31 30 32 31 30 26 25 25 24 20 17 15
7 4 8 10 19 3 6 7 14 14 9 11 11 15 26 20 20 21 25 34 37 34 35 38 42 45 42 39 38 36 33 33 33 33 34 31 27 26 24 24 22 19 16 12
2 5 8 16 20 11 10 10 7 15 16 7 7 14 23 19 16 17 29 38 34 33 33 38 44 45 43 42 41 37 36 34 34 37 34 32 30 29 26 23 20 17 13 9
3 4 12 14 7 3 4 6 7 12 13 13 14 19 16 18 22 20 33 36 34 33 35 38 41 45 44 43 42 39 37 38 37 38 34 33 31 27 24 21 18 14 12 10
4 5 5 5 7 2 6 7 9 6 7 4 8 11 13 9 21 21 29 32 36 37 40 42 44 45 44 43 41 39 37 38 37 38 36 32 28 24 21 19 16 14 12 11
8 9 6 6 9 2 4 9 7 8 6 10 11 18 12 20 26 25 26 34 35 40 42 44 46 45 44 42 40 38 34 35 33 31 29 26 25 23 21 18 16 14 13 12
9 5 6 6 9 2 2 8 8 7 3 14 18 1 23 36 42 23 28 30 36 41 44 46 47 44 39 36 35 35 33 32 31 29 27 25 23 22 20 18 17 15 14 12
10 6 5 7 5 6 5 20 26 4 3 17 16 9 19 24 14 4 33 38 40 43 47 47 43 38 38 34 34 35 33 31 29 27 25 23 21 20 20 19 17 15 14 13
9 7 8 9 3 2 10 26 26 3 5 26 18 6 19 12 10 24 42 42 43 46 42 39 37 37 35 33 34 34 32 30 27 25 24 22 22 22 19 17 15 13 12 11
5 6 4 5 4 4 29 16 8 11 18 15 12 20 35 37 29 33 43 46 44 43 38 36 38 36 32 30 32 32 30 28 26 26 24 21 20 18 16 15 13 12 10 9
2 4 5 4 4 10 24 18 28 13 3 7 13 19 37 39 31 35 41 41 40 39 37 34 35 33 29 27 28 31 28 27 26 25 22 21 19 18 16 14 12 10 8 8
2 4 3 8 4 14 18 29 29 10 11 18 21 25 31 44 38 35 41 38 39 36 34 33 32 31 30 27 28 29 27 25 25 24 22 20 19 18 16 13 11 10 9 9
4 10 7 4 6 18 10 29 21 14 19 24 29 29 30 49 39 41 40 36 37 35 31 29 29 28 28 27 27 26 25 24 24 22 20 19 18 17 15 13 13 10 10 12
4 4 5 3 11 7 14 26 13 16 16 19 32 33 31 43 42 41 41 38 36 33 28 28 26 27 26 25 25 23 22 21 22 21 18 18 17 15 14 13 14 13 14 14
Wind_Direction
233 239 241 250 255 254 272 275 269 269 267 263 266 275 270 248 249 245 249 242 246 236 234 219 208 200 193 188 187 186 183 186 188 197 191 189 188 183 186 183 191 205 195 199
251 243 251 262 267 264 262 261 262 265 260 260 265 266 257 253 251 256 249 242 241 239 228 211 199 196 192 186 186 187 185 186 194 186 176 178 176 177 173 176 178 180 185 192
263 268 291 262 255 254 251 252 263 270 273 254 260 268 262 252 246 246 248 247 242 237 222 201 197 196 189 186 187 188 189 195 188 173 165 157 162 161 161 169 180 184 182 196
283 279 274 272 253 252 255 258 266 269 263 255 234 258 255 248 234 229 239 235 234 229 223 205 195 191 186 182 183 182 185 192 176 171 163 161 164 181 184 196 200 199 205 216
251 270 278 267 256 268 270 290 276 263 247 261 251 245 257 248 236 230 223 225 227 223 212 206 195 186 181 177 176 175 178 177 182 168 159 169 182 192 188 194 200 212 246 239
266 274 267 255 268 264 270 290 255 225 238 241 236 234 258 250 234 227 220 216 217 215 208 202 191 183 179 172 169 168 173 172 176 164 183 183 191 182 190 202 223 222 177 146
308 265 225 239 249 252 197 188 211 197 202 237 229 217 237 249 244 232 218 212 208 205 201 195 184 181 171 168 166 164 167 164 163 174 180 179 193 207 224 196 195 172 153 163
287 305 194 210 229 229 214 212 229 226 217 245 215 231 230 231 240 265 234 217 204 197 194 191 181 172 166 164 162 168 162 163 167 169 172 184 189 176 175 182 169 163 154 154
299 254 1 279 246 262 151 216 242 292 282 289 263 224 242 260 239 234 229 217 202 187 192 181 174 166 163 163 167 155 159 160 164 167 175 170 160 177 169 160 165 164 165 166
272 281 267 276 278 231 216 347 193 202 247 245 248 238 251 223 221 214 219 225 196 181 186 175 165 162 160 164 153 153 156 161 160 165 161 168 180 175 167 162 162 164 158 167
251 220 275 263 212 217 175 213 229 268 248 259 267 258 268 217 216 203 203 203 183 178 171 165 152 153 153 152 148 152 147 160 156 157 174 177 171 161 162 162 164 163 169 171
264 276 259 263 255 257 234 222 226 233 228 239 268 269 327 184 232 191 207 192 182 172 162 143 149 145 149 148 154 155 158 159 170 175 175 170 159 155 153 155 164 172 173 174
181 232 280 251 215 224 239 226 232 236 259 267 275 279 295 311 303 177 199 180 164 153 128 138 144 145 152 154 155 158 163 167 172 171 168 156 149 150 152 155 162 164 164 162
213 246 242 271 303 343 244 227 221 230 253 262 262 295 278 288 300 182 189 161 148 134 137 134 135 145 148 150 154 158 160 165 166 165 160 155 152 153 150 147 147 149 153 157
234 263 245 253 273 268 242 263 194 239 242 251 287 255 277 280 272 185 166 127 129 139 135 132 135 142 148 150 154 157 158 158 159 157 150 149 149 148 147 145 145 146 146 151
272 276 303 292 285 208 224 198 210 236 261 261 261 270 275 267 257 166 125 132 138 133 126 129 137 144 150 152 152 155 153 152 155 148 144 144 146 143 143 141 141 145 148 152
289 304 302 295 331 301 122 10 308 327 298 281 266 267 273 278 133 125 129 139 134 131 131 132 135 140 145 147 148 147 147 149 152 147 143 141 139 131 130 131 132 133 133 127
309 312 280 288 305 316 105 42 344 317 289 307 285 251 253 98 89 104 128 134 126 127 126 127 128 129 133 135 136 132 132 134 133 131 131 128 128 126 123 125 127 122 116 113
317 295 300 319 331 331 25 22 341 330 298 351 355 315 94 97 87 60 101 112 120 123 125 126 125 125 126 129 129 130 129 128 128 128 128 129 128 125 122 120 118 115 111 102
320 270 248 330 322 352 15 329 328 185 356 347 326 136 116 117 100 86 110 116 117 120 123 122 123 125 124 127 128 127 127 127 126 127 127 124 125 125 123 119 114 107 100 96
339 356 351 341 333 97 3 329 318 343 332 317 349 335 107 96 93 119 119 117 118 119 119 120 121 121 123 127 128 124 125 123 123 124 124 125 128 125 123 117 112 107 106 91
325 332 360 328 335 350 355 346 4 306 299 322 32 94 101 103 105 110 114 116 115 115 118 120 120 120 123 126 126 123 120 121 122 122 122 122 122 121 122 123 116 109 97 83
340 10 313 334 336 337 325 313 315 344 81 41 77 97 112 108 103 111 112 112 113 115 117 119 118 118 119 122 124 120 119 123 122 120 121 118 117 119 121 118 113 102 88 76
136 33 277 321 60 334 324 355 2 74 79 93 98 102 106 105 106 103 108 110 112 116 115 117 117 117 116 119 122 120 121 122 123 122 122 121 120 121 116 106 99 90 79 83
12 308 326 262 344 330 340 1 7 83 98 97 100 99 103 112 103 105 103 105 111 113 113 116 116 117 117 119 119 121 123 125 123 122 122 121 119 118 118 115 100 89 103 112
0 351 339 349 325 311 303 352 34 88 97 104 114 105 98 113 113 113 106 106 109 112 115 114 114 113 115 115 116 120 124 127 126 123 123 126 123 118 115 112 115 101 98 99